| time (UTC) | temp F | wind direction | speed knots | gust knots | rain 1hr in | rain 24hr in | rain mn in | humidity % | barometer mb |
| 20260504050550 | 39 | 0 | 0.0 | 0.0 | 0.00 | 0.00 | 0.00 | 83 | 1015.4 |
| 20260504045549 | 39 | 0 | 0.0 | 0.0 | 0.00 | 0.00 | 0.00 | 82 | 1015.4 |
| 20260504045051 | 40 | 0 | 0.0 | 0.0 | 0.00 | 0.00 | 0.00 | 82 | 1015.5 |
| 20260504044600 | 40 | 0 | 0.0 | 0.0 | 0.00 | 0.00 | 0.00 | 82 | 1015.4 |
| 20260504044050 | 40 | 0 | 0.0 | 0.0 | 0.00 | 0.00 | 0.00 | 82 | 1015.5 |
| 20260504043550 | 40 | 0 | 0.0 | 0.0 | 0.00 | 0.00 | 0.00 | 82 | 1015.5 |
| 20260504043055 | 40 | 0 | 0.0 | 0.0 | 0.00 | 0.00 | 0.00 | 81 | 1015.4 |
| 20260504042549 | 40 | 0 | 0.0 | 0.0 | 0.00 | 0.00 | 0.00 | 81 | 1015.4 |
| 20260504042050 | 40 | 0 | 0.0 | 0.0 | 0.00 | 0.00 | 0.00 | 81 | 1015.4 |
| 20260504041555 | 41 | 0 | 0.0 | 0.0 | 0.00 | 0.00 | 0.00 | 80 | 1015.4 |
| 20260504041049 | 41 | 0 | 0.0 | 0.9 | 0.00 | 0.00 | 0.00 | 80 | 1015.3 |
| 20260504040551 | 41 | 0 | 0.0 | 0.9 | 0.00 | 0.00 | 0.00 | 80 | 1015.2 |
| 20260504040053 | 41 | 0 | 0.0 | 0.9 | 0.00 | 0.00 | 0.00 | 80 | 1015.1 |
| 20260504035550 | 41 | 0 | 0.0 | 0.0 | 0.00 | 0.00 | 0.00 | 80 | 1014.9 |
| 20260504035050 | 41 | 0 | 0.0 | 0.0 | 0.00 | 0.00 | 0.00 | 79 | 1014.9 |
| 20260504034553 | 41 | 0 | 0.0 | 0.0 | 0.00 | 0.00 | 0.00 | 78 | 1015.1 |
| 20260504034054 | 41 | 0 | 0.0 | 0.0 | 0.00 | 0.00 | 0.00 | 78 | 1015.1 |
| 20260504033550 | 41 | 0 | 0.0 | 0.0 | 0.00 | 0.00 | 0.00 | 78 | 1015.0 |
| 20260504033051 | 42 | 0 | 0.0 | 0.0 | 0.00 | 0.00 | 0.00 | 77 | 1014.9 |
| 20260504032550 | 42 | 0 | 0.0 | 0.0 | 0.00 | 0.00 | 0.00 | 77 | 1014.9 |
| 20260504032050 | 42 | 0 | 0.0 | 0.0 | 0.00 | 0.00 | 0.00 | 76 | 1015.0 |
| 20260504031550 | 42 | 0 | 0.0 | 0.0 | 0.00 | 0.00 | 0.00 | 76 | 1014.9 |
| 20260504031049 | 42 | 0 | 0.0 | 0.0 | 0.00 | 0.00 | 0.00 | 76 | 1014.7 |
| 20260504030550 | 42 | 0 | 0.0 | 0.0 | 0.00 | 0.00 | 0.00 | 76 | 1014.7 |
| 20260504030053 | 43 | 0 | 0.0 | 0.0 | 0.00 | 0.00 | 0.00 | 75 | 1014.8 |
| 20260504025551 | 43 | 0 | 0.0 | 0.0 | 0.00 | 0.00 | 0.00 | 74 | 1014.8 |
| 20260504025051 | 43 | 0 | 0.0 | 0.0 | 0.00 | 0.00 | 0.00 | 73 | 1014.9 |
| 20260504024602 | 43 | 0 | 0.0 | 0.0 | 0.00 | 0.00 | 0.00 | 73 | 1014.7 |
| 20260504024049 | 44 | 0 | 0.0 | 0.0 | 0.00 | 0.00 | 0.00 | 73 | 1014.6 |
| 20260504023550 | 44 | 0 | 0.0 | 0.0 | 0.00 | 0.00 | 0.00 | 72 | 1014.7 |
| 20260504023053 | 44 | 0 | 0.0 | 0.0 | 0.00 | 0.00 | 0.00 | 72 | 1014.7 |
| 20260504022550 | 44 | 0 | 0.0 | 0.0 | 0.00 | 0.00 | 0.00 | 70 | 1014.6 |
| 20260504022052 | 44 | 0 | 0.0 | 0.0 | 0.00 | 0.00 | 0.00 | 70 | 1014.6 |
| 20260504021550 | 45 | 0 | 0.0 | 0.0 | 0.00 | 0.00 | 0.00 | 70 | 1014.6 |
| 20260504021050 | 45 | 0 | 0.0 | 0.0 | 0.00 | 0.00 | 0.00 | 69 | 1014.5 |
| 20260504020551 | 45 | 0 | 0.0 | 0.0 | 0.00 | 0.00 | 0.00 | 68 | 1014.6 |
| 20260504020057 | 45 | 0 | 0.0 | 0.0 | 0.00 | 0.00 | 0.00 | 66 | 1014.6 |
| 20260504015550 | 46 | 0 | 0.0 | 0.0 | 0.00 | 0.00 | 0.00 | 65 | 1014.7 |
| 20260504015050 | 46 | 0 | 0.0 | 0.0 | 0.00 | 0.00 | 0.00 | 65 | 1014.6 |
| 20260504014601 | 46 | 0 | 0.0 | 0.0 | 0.00 | 0.00 | 0.00 | 64 | 1014.6 |
| 20260504014049 | 47 | 0 | 0.0 | 0.0 | 0.00 | 0.00 | 0.00 | 63 | 1014.6 |
| 20260504013549 | 47 | 0 | 0.0 | 0.0 | 0.00 | 0.00 | 0.00 | 64 | 1014.5 |
| 20260504013056 | 47 | 0 | 0.0 | 0.9 | 0.00 | 0.00 | 0.00 | 64 | 1014.5 |
| 20260504012552 | 47 | 0 | 0.0 | 0.9 | 0.00 | 0.00 | 0.00 | 63 | 1014.5 |
| 20260504012051 | 47 | 0 | 0.0 | 0.0 | 0.00 | 0.00 | 0.00 | 62 | 1014.5 |
| 20260504011551 | 48 | 0 | 0.0 | 0.0 | 0.00 | 0.00 | 0.00 | 60 | 1014.4 |
| 20260504011050 | 48 | 0 | 0.0 | 0.0 | 0.00 | 0.00 | 0.00 | 59 | 1014.3 |
| 20260504010550 | 49 | 0 | 0.0 | 0.0 | 0.00 | 0.00 | 0.00 | 58 | 1014.3 |
| 20260504010057 | 49 | 0 | 0.0 | 0.0 | 0.00 | 0.00 | 0.00 | 58 | 1014.2 |
| 20260504005550 | 50 | 0 | 0.0 | 0.0 | 0.00 | 0.00 | 0.00 | 57 | 1014.1 |
| 20260504005050 | 50 | 0 | 0.0 | 0.0 | 0.00 | 0.00 | 0.00 | 56 | 1014.2 |
| 20260504004550 | 51 | 0 | 0.0 | 0.0 | 0.00 | 0.00 | 0.00 | 54 | 1014.1 |
| 20260504004050 | 51 | 0 | 0.0 | 0.0 | 0.00 | 0.00 | 0.00 | 53 | 1014.0 |
| 20260504003551 | 52 | 0 | 0.0 | 0.0 | 0.00 | 0.00 | 0.00 | 52 | 1013.9 |
| 20260504003055 | 52 | 0 | 0.0 | 0.0 | 0.00 | 0.00 | 0.00 | 52 | 1013.9 |
| 20260504002550 | 53 | 0 | 0.0 | 0.0 | 0.00 | 0.00 | 0.00 | 51 | 1013.9 |
| 20260504002050 | 54 | 0 | 0.0 | 0.0 | 0.00 | 0.00 | 0.00 | 48 | 1013.8 |
| 20260504001551 | 54 | 0 | 0.0 | 0.0 | 0.00 | 0.00 | 0.00 | 46 | 1013.8 |
| 20260504001050 | 55 | 0 | 0.0 | 0.0 | 0.00 | 0.00 | 0.00 | 45 | 1013.8 |
| 20260504000550 | 56 | 0 | 0.0 | 0.0 | 0.00 | 0.00 | 0.00 | 45 | 1013.7 |
| 20260504000128 | 56 | 0 | 0.0 | 0.9 | 0.00 | 0.00 | 0.00 | 43 | 1013.7 |
| 20260503235550 | 56 | 0 | 0.0 | 0.9 | 0.00 | 0.00 | 0.00 | 41 | 1013.7 |
| 20260503235049 | 57 | 291 | 0.0 | 0.9 | 0.00 | 0.00 | 0.00 | 41 | 1013.6 |
| 20260503234559 | 57 | 0 | 0.0 | 2.6 | 0.00 | 0.00 | 0.00 | 40 | 1013.6 |
| 20260503234052 | 57 | 294 | 0.0 | 2.6 | 0.00 | 0.00 | 0.00 | 40 | 1013.5 |
| 20260503233550 | 57 | 305 | 0.0 | 0.9 | 0.00 | 0.00 | 0.00 | 41 | 1013.4 |
| 20260503233054 | 58 | 325 | 0.0 | 0.9 | 0.00 | 0.00 | 0.00 | 42 | 1013.3 |
| 20260503232551 | 58 | 0 | 0.0 | 1.7 | 0.00 | 0.00 | 0.00 | 41 | 1013.3 |
| 20260503232050 | 58 | 0 | 0.0 | 1.7 | 0.00 | 0.00 | 0.00 | 40 | 1013.3 |
| 20260503231553 | 59 | 306 | 0.0 | 1.7 | 0.00 | 0.00 | 0.00 | 39 | 1013.3 |
| 20260503231050 | 59 | 0 | 0.0 | 2.6 | 0.00 | 0.00 | 0.00 | 40 | 1013.3 |
| 20260503230549 | 59 | 299 | 0.0 | 3.5 | 0.00 | 0.00 | 0.00 | 38 | 1013.3 |
| 20260503230054 | 59 | 0 | 0.9 | 3.5 | 0.00 | 0.00 | 0.00 | 38 | 1013.3 |
| 20260503225549 | 60 | 300 | 0.0 | 3.5 | 0.00 | 0.00 | 0.00 | 39 | 1013.4 |
| 20260503225049 | 60 | 0 | 0.0 | 4.3 | 0.00 | 0.00 | 0.00 | 39 | 1013.3 |
| 20260503224553 | 60 | 318 | 0.9 | 4.3 | 0.00 | 0.00 | 0.00 | 36 | 1013.3 |
| 20260503224053 | 60 | 257 | 0.0 | 3.5 | 0.00 | 0.00 | 0.00 | 37 | 1013.4 |
| 20260503223551 | 61 | 306 | 0.0 | 4.3 | 0.00 | 0.00 | 0.00 | 37 | 1013.3 |
| 20260503223052 | 61 | 0 | 0.9 | 4.3 | 0.00 | 0.00 | 0.00 | 36 | 1013.3 |
| 20260503222551 | 62 | 273 | 0.9 | 4.3 | 0.00 | 0.00 | 0.00 | 35 | 1013.3 |
| 20260503222051 | 63 | 130 | 0.0 | 4.3 | 0.00 | 0.00 | 0.00 | 36 | 1013.3 |
| 20260503221555 | 63 | 338 | 0.0 | 4.3 | 0.00 | 0.00 | 0.00 | 34 | 1013.3 |
| 20260503221050 | 62 | 290 | 0.9 | 4.3 | 0.00 | 0.00 | 0.00 | 37 | 1013.4 |
| 20260503220550 | 62 | 318 | 0.0 | 3.5 | 0.00 | 0.00 | 0.00 | 36 | 1013.4 |
| 20260503220053 | 62 | 0 | 0.9 | 9.6 | 0.00 | 0.00 | 0.00 | 35 | 1013.4 |
| 20260503215549 | 62 | 254 | 2.6 | 9.6 | 0.00 | 0.00 | 0.00 | 34 | 1013.4 |
| 20260503215050 | 62 | 307 | 0.9 | 6.1 | 0.00 | 0.00 | 0.00 | 37 | 1013.4 |
| 20260503214552 | 63 | 308 | 0.9 | 6.1 | 0.00 | 0.00 | 0.00 | 34 | 1013.3 |
| 20260503214051 | 62 | 0 | 0.9 | 3.5 | 0.00 | 0.00 | 0.00 | 34 | 1013.4 |
| 20260503213550 | 63 | 314 | 0.9 | 5.2 | 0.00 | 0.00 | 0.00 | 35 | 1013.4 |
| 20260503213055 | 63 | 268 | 0.9 | 5.2 | 0.00 | 0.00 | 0.00 | 35 | 1013.2 |
| 20260503212550 | 63 | 329 | 0.0 | 5.2 | 0.00 | 0.00 | 0.00 | 34 | 1013.3 |
| 20260503212050 | 62 | 80 | 0.0 | 3.5 | 0.00 | 0.00 | 0.00 | 35 | 1013.2 |
| 20260503211613 | 62 | 319 | 0.9 | 6.1 | 0.00 | 0.00 | 0.00 | 35 | 1013.2 |
| 20260503211050 | 62 | 302 | 1.7 | 9.6 | 0.00 | 0.00 | 0.00 | 35 | 1013.3 |
| 20260503210549 | 62 | 315 | 2.6 | 9.6 | 0.00 | 0.00 | 0.00 | 34 | 1013.2 |
| 20260503210055 | 62 | 148 | 0.9 | 6.1 | 0.00 | 0.00 | 0.00 | 35 | 1013.3 |
| 20260503205550 | 62 | 324 | 0.9 | 5.2 | 0.00 | 0.00 | 0.00 | 37 | 1013.3 |
| 20260503205050 | 62 | 307 | 1.7 | 5.2 | 0.00 | 0.00 | 0.00 | 34 | 1013.3 |
| 20260503204555 | 62 | 300 | 0.9 | 5.2 | 0.00 | 0.00 | 0.00 | 36 | 1013.4 |
| 20260503204051 | 62 | 312 | 0.9 | 7.8 | 0.00 | 0.00 | 0.00 | 34 | 1013.5 |
| 20260503203551 | 62 | 318 | 0.9 | 7.8 | 0.00 | 0.00 | 0.00 | 35 | 1013.5 |
| 20260503203107 | 62 | 305 | 0.9 | 6.1 | 0.00 | 0.00 | 0.00 | 36 | 1013.4 |
| 20260503202553 | 61 | 158 | 0.9 | 6.1 | 0.00 | 0.00 | 0.00 | 36 | 1013.5 |
| 20260503202054 | 61 | 301 | 1.7 | 6.1 | 0.00 | 0.00 | 0.00 | 35 | 1013.6 |
| 20260503201554 | 62 | 305 | 1.7 | 6.1 | 0.00 | 0.00 | 0.00 | 37 | 1013.5 |
| 20260503201049 | 62 | 307 | 0.9 | 7.8 | 0.00 | 0.00 | 0.00 | 36 | 1013.6 |
| 20260503200554 | 61 | 295 | 0.9 | 7.8 | 0.00 | 0.00 | 0.00 | 36 | 1013.7 |
| 20260503200053 | 61 | 0 | 0.9 | 6.1 | 0.00 | 0.00 | 0.00 | 37 | 1013.8 |
| 20260503195549 | 61 | 309 | 0.9 | 14.8 | 0.00 | 0.00 | 0.00 | 37 | 1013.9 |
| 20260503195049 | 61 | 314 | 0.9 | 14.8 | 0.00 | 0.00 | 0.00 | 36 | 1014.0 |
| 20260503194558 | 61 | 307 | 1.7 | 10.4 | 0.00 | 0.00 | 0.00 | 37 | 1014.0 |
| 20260503194055 | 61 | 314 | 0.9 | 7.8 | 0.00 | 0.00 | 0.00 | 36 | 1014.2 |
| 20260503193551 | 61 | 324 | 2.6 | 7.8 | 0.00 | 0.00 | 0.00 | 37 | 1014.2 |
| 20260503193058 | 61 | 298 | 0.9 | 4.3 | 0.00 | 0.00 | 0.00 | 40 | 1014.2 |
| 20260503192551 | 60 | 0 | 0.9 | 7.8 | 0.00 | 0.00 | 0.00 | 40 | 1014.2 |
| 20260503192050 | 59 | 316 | 1.7 | 7.8 | 0.00 | 0.00 | 0.00 | 39 | 1014.1 |
| 20260503191559 | 59 | 317 | 1.7 | 7.8 | 0.00 | 0.00 | 0.00 | 36 | 1014.4 |
| 20260503191053 | 60 | 324 | 1.7 | 5.2 | 0.00 | 0.00 | 0.00 | 38 | 1014.3 |
| 20260503190550 | 61 | 348 | 0.9 | 5.2 | 0.00 | 0.00 | 0.00 | 38 | 1014.3 |
| 20260503190053 | 60 | 318 | 0.9 | 7.8 | 0.00 | 0.00 | 0.00 | 39 | 1014.2 |
| 20260503185550 | 60 | 300 | 0.0 | 7.8 | 0.00 | 0.00 | 0.00 | 40 | 1014.5 |
| 20260503185050 | 59 | 127 | 1.7 | 7.8 | 0.00 | 0.00 | 0.00 | 40 | 1014.5 |
| 20260503184555 | 59 | 300 | 2.6 | 7.0 | 0.00 | 0.00 | 0.00 | 43 | 1014.6 |
| 20260503184053 | 59 | 172 | 1.7 | 6.1 | 0.00 | 0.00 | 0.00 | 43 | 1014.6 |
| 20260503183549 | 58 | 339 | 0.9 | 4.3 | 0.00 | 0.00 | 0.00 | 41 | 1014.7 |
| 20260503183053 | 58 | 313 | 0.9 | 7.8 | 0.00 | 0.00 | 0.00 | 39 | 1014.8 |
| 20260503182549 | 59 | 313 | 1.7 | 7.8 | 0.00 | 0.00 | 0.00 | 40 | 1014.9 |
| 20260503182051 | 59 | 314 | 0.9 | 6.1 | 0.00 | 0.00 | 0.00 | 42 | 1014.9 |
| 20260503181602 | 59 | 302 | 0.9 | 6.1 | 0.00 | 0.00 | 0.00 | 46 | 1014.9 |
| 20260503181051 | 58 | 328 | 1.7 | 6.1 | 0.00 | 0.00 | 0.00 | 42 | 1015.0 |
| 20260503180550 | 58 | 303 | 1.7 | 10.4 | 0.00 | 0.00 | 0.00 | 41 | 1015.0 |
| 20260503175551 | 59 | 309 | 0.9 | 9.6 | 0.00 | 0.00 | 0.00 | 40 | 1015.0 |
| 20260503175050 | 59 | 163 | 0.0 | 9.6 | 0.00 | 0.00 | 0.00 | 40 | 1014.9 |
| 20260503174557 | 59 | 178 | 2.6 | 6.1 | 0.00 | 0.00 | 0.00 | 40 | 1015.0 |
| 20260503174054 | 59 | 318 | 0.9 | 6.1 | 0.00 | 0.00 | 0.00 | 41 | 1015.0 |
| 20260503173550 | 58 | 312 | 1.7 | 7.0 | 0.00 | 0.00 | 0.00 | 40 | 1015.2 |
| 20260503173058 | 57 | 327 | 1.7 | 7.0 | 0.00 | 0.00 | 0.00 | 42 | 1015.0 |
| 20260503172549 | 58 | 332 | 1.7 | 7.0 | 0.00 | 0.00 | 0.00 | 40 | 1015.1 |
| 20260503172051 | 57 | 298 | 1.7 | 9.6 | 0.00 | 0.00 | 0.00 | 43 | 1015.3 |
| 20260503171553 | 57 | 95 | 0.9 | 9.6 | 0.00 | 0.00 | 0.00 | 42 | 1015.1 |
| 20260503171050 | 57 | 274 | 0.9 | 6.1 | 0.00 | 0.00 | 0.00 | 42 | 1015.3 |
| 20260503170550 | 57 | 333 | 2.6 | 6.1 | 0.00 | 0.00 | 0.00 | 42 | 1015.4 |
| 20260503150550 | 53 | 309 | 0.0 | 7.8 | 0.00 | 0.00 | 0.00 | 46 | 1015.8 |
| 20260503131053 | 46 | 311 | 1.7 | 6.1 | 0.00 | 0.00 | 0.00 | 59 | 1016.4 |
| 20260503130550 | 45 | 312 | 1.7 | 6.1 | 0.00 | 0.00 | 0.00 | 59 | 1016.3 |
| 20260503110551 | 40 | 297 | 0.9 | 5.2 | 0.00 | 0.00 | 0.00 | 71 | 1015.2 |
| 20260503081554 | 40 | 301 | 0.0 | 1.7 | 0.00 | 0.00 | 0.00 | 72 | 1013.4 |
| 20260503081053 | 41 | 0 | 0.0 | 1.7 | 0.00 | 0.00 | 0.00 | 72 | 1013.4 |
| 20260503080553 | 41 | 260 | 0.0 | 2.6 | 0.00 | 0.00 | 0.00 | 72 | 1013.3 |
| 20260503072551 | 41 | 0 | 0.0 | 0.9 | 0.00 | 0.00 | 0.00 | 72 | 1013.0 |
| 20260503072049 | 41 | 0 | 0.0 | 0.9 | 0.00 | 0.00 | 0.00 | 72 | 1012.9 |
| 20260503071603 | 42 | 0 | 0.0 | 1.7 | 0.00 | 0.00 | 0.00 | 71 | 1012.8 |
| 20260503071049 | 42 | 305 | 0.0 | 1.7 | 0.00 | 0.00 | 0.00 | 71 | 1012.8 |
| 20260503070549 | 42 | 0 | 0.0 | 1.7 | 0.00 | 0.00 | 0.00 | 71 | 1012.7 |
| 20260503060107 | 42 | 0 | 0.0 | 3.5 | 0.00 | 0.00 | 0.00 | 71 | 1012.5 |
| 20260503055049 | 42 | 300 | 0.0 | 3.5 | 0.00 | 0.00 | 0.00 | 71 | 1012.6 |
| 20260503054556 | 42 | 0 | 0.0 | 1.7 | 0.00 | 0.00 | 0.00 | 71 | 1012.7 |
| 20260503054049 | 43 | 0 | 0.0 | 1.7 | 0.00 | 0.00 | 0.00 | 71 | 1012.7 |
| 20260503053550 | 43 | 0 | 0.0 | 1.7 | 0.00 | 0.00 | 0.00 | 71 | 1012.8 |